When you browse on this site, cookies collect data to enhance your experience and personalize the content and advertising you see.
Visit our Privacy Policy to learn more. By continuing to use the site, you agree to this use of cookies and data.
  • en France
  • Liste des pays
  • À 7 jours
  • Température de l'eau
  • Carte météo
  • Widgets météo
  • user-avatar
    Se connecter

    Météo par heure à Uige

    Ce jour, 5 Juin, Vendredi

    Heure Température Précipitation Vent Pression Humidité
    00:00 +20°C° 0 mm 0 m/s 692 mmHg 94%
    01:00 +20°C° 0 mm 0 m/s 692 mmHg 97%
    02:00 +19°C° 0 mm 0 m/s 692 mmHg 97%
    03:00 +19°C° 0 mm 0 m/s 692 mmHg 97%
    04:00 +21°C° 0 mm 1 m/s 691 mmHg 97%
    05:00 +21°C° 0 mm 1 m/s 692 mmHg 96%
    06:00 +22°C° 0 mm 1 m/s 692 mmHg 94%
    07:00 +22°C° 0 mm 1 m/s 693 mmHg 93%
    08:00 +25°C° 0 mm 1 m/s 693 mmHg 80%
    09:00 +27°C° 0 mm 1 m/s 694 mmHg 67%
    10:00 +30°C° 0 mm 1 m/s 694 mmHg 54%
    11:00 +32°C° 0 mm 1 m/s 694 mmHg 48%
    12:00 +34°C° 0 mm 1 m/s 694 mmHg 42%
    13:00 +33°C° 0 mm 0 m/s 693 mmHg 36%
    14:00 +34°C° 0 mm 1 m/s 692 mmHg 42%
    15:00 +32°C° 0 mm 1 m/s 691 mmHg 49%
    16:00 +30°C° 0 mm 1 m/s 690 mmHg 56%
    17:00 +28°C° 0.7 mm 1 m/s 691 mmHg 66%
    18:00 +26°C° 0.7 mm 1 m/s 691 mmHg 77%
    19:00 +22°C° 0.7 mm 0 m/s 692 mmHg 87%
    20:00 +24°C° 0.6 mm 1 m/s 692 mmHg 89%
    21:00 +23°C° 0.6 mm 1 m/s 693 mmHg 92%
    22:00 +23°C° 0.6 mm 1 m/s 693 mmHg 94%
    23:00 +22°C° 0.1 mm 1 m/s 693 mmHg 95%

    Demain, 6 Juin, Samedi

    Heure Température Précipitation Vent Pression Humidité
    00:00 +22°C° 0.1 mm 1 m/s 693 mmHg 97%
    01:00 +21°C° 0.1 mm 1 m/s 692 mmHg 98%
    02:00 +21°C° 0 mm 1 m/s 692 mmHg 98%
    03:00 +21°C° 0 mm 1 m/s 692 mmHg 98%
    04:00 +21°C° 0 mm 1 m/s 692 mmHg 98%
    05:00 +21°C° 0 mm 1 m/s 692 mmHg 97%
    06:00 +22°C° 0 mm 1 m/s 693 mmHg 96%
    07:00 +22°C° 0 mm 1 m/s 693 mmHg 94%
    08:00 +24°C° 0 mm 1 m/s 694 mmHg 82%
    09:00 +27°C° 0 mm 1 m/s 694 mmHg 69%
    10:00 +29°C° 0 mm 1 m/s 694 mmHg 57%
    11:00 +31°C° 0 mm 1 m/s 694 mmHg 50%
    12:00 +33°C° 0 mm 1 m/s 693 mmHg 44%
    13:00 +35°C° 0 mm 1 m/s 693 mmHg 37%
    14:00 +34°C° 0 mm 1 m/s 692 mmHg 42%
    15:00 +32°C° 0 mm 1 m/s 692 mmHg 47%
    16:00 +31°C° 0 mm 1 m/s 691 mmHg 51%
    17:00 +29°C° 0.2 mm 1 m/s 691 mmHg 59%
    18:00 +28°C° 0.2 mm 1 m/s 691 mmHg 66%
    19:00 +26°C° 0.2 mm 1 m/s 692 mmHg 73%
    20:00 +25°C° 0 mm 1 m/s 692 mmHg 76%
    21:00 +22°C° 0 mm 0 m/s 692 mmHg 80%
    22:00 +21°C° 0 mm 0 m/s 692 mmHg 84%
    23:00 +20°C° 0 mm 0 m/s 692 mmHg 86%

    Après-demain, 7 Juin, Dimanche

    Heure Température Précipitation Vent Pression Humidité
    00:00 +20°C° 0 mm 0 m/s 692 mmHg 89%
    01:00 +21°C° 0 mm 1 m/s 692 mmHg 91%
    02:00 +21°C° 0 mm 1 m/s 691 mmHg 93%
    03:00 +21°C° 0 mm 1 m/s 691 mmHg 95%
    04:00 +20°C° 0 mm 1 m/s 691 mmHg 97%
    05:00 +20°C° 0 mm 1 m/s 691 mmHg 96%
    06:00 +21°C° 0 mm 1 m/s 692 mmHg 95%
    07:00 +21°C° 0 mm 1 m/s 693 mmHg 94%
    08:00 +24°C° 0 mm 1 m/s 693 mmHg 81%
    09:00 +26°C° 0 mm 1 m/s 694 mmHg 69%
    10:00 +29°C° 0 mm 1 m/s 694 mmHg 56%
    11:00 +30°C° 0 mm 1 m/s 694 mmHg 50%
    12:00 +32°C° 0 mm 1 m/s 693 mmHg 44%
    13:00 +33°C° 0 mm 1 m/s 693 mmHg 39%
    14:00 +33°C° 0 mm 1 m/s 692 mmHg 40%
    15:00 +32°C° 0 mm 1 m/s 691 mmHg 42%
    16:00 +32°C° 0 mm 2 m/s 691 mmHg 44%
    17:00 +29°C° 0 mm 1 m/s 691 mmHg 54%
    18:00 +27°C° 0 mm 1 m/s 691 mmHg 64%
    19:00 +24°C° 0 mm 1 m/s 691 mmHg 74%
    20:00 +24°C° 0 mm 1 m/s 691 mmHg 77%
    21:00 +21°C° 0 mm 0 m/s 691 mmHg 81%
    22:00 +20°C° 0 mm 0 m/s 692 mmHg 84%
    23:00 +20°C° 0 mm 0 m/s 691 mmHg 86%

    8 Juin, Lundi

    Heure Température Précipitation Vent Pression Humidité
    00:00 +19°C° 0 mm 0 m/s 691 mmHg 88%
    01:00 +19°C° 0 mm 0 m/s 691 mmHg 91%
    02:00 +18°C° 0 mm 0 m/s 691 mmHg 92%
    03:00 +18°C° 0 mm 0 m/s 690 mmHg 94%
    04:00 +18°C° 0 mm 0 m/s 690 mmHg 96%
    05:00 +20°C° 0 mm 1 m/s 691 mmHg 95%
    06:00 +20°C° 0 mm 1 m/s 691 mmHg 94%
    07:00 +20°C° 0 mm 1 m/s 691 mmHg 92%
    08:00 +23°C° 0 mm 1 m/s 692 mmHg 79%
    09:00 +26°C° 0 mm 1 m/s 693 mmHg 66%
    10:00 +29°C° 0 mm 1 m/s 693 mmHg 53%
    11:00 +31°C° 0 mm 1 m/s 693 mmHg 47%
    12:00 +32°C° 0 mm 1 m/s 692 mmHg 41%
    13:00 +33°C° 0 mm 1 m/s 692 mmHg 35%
    14:00 +34°C° 0 mm 2 m/s 691 mmHg 38%
    15:00 +32°C° 0 mm 2 m/s 691 mmHg 41%
    16:00 +31°C° 0 mm 2 m/s 690 mmHg 44%
    17:00 +29°C° 0 mm 2 m/s 691 mmHg 54%
    18:00 +26°C° 0 mm 2 m/s 691 mmHg 64%
    19:00 +24°C° 0 mm 1 m/s 691 mmHg 74%
    20:00 +23°C° 0 mm 1 m/s 691 mmHg 78%
    21:00 +21°C° 0 mm 0 m/s 691 mmHg 82%
    22:00 +20°C° 0 mm 0 m/s 692 mmHg 86%
    23:00 +19°C° 0 mm 0 m/s 692 mmHg 88%

    9 Juin, Mardi

    Heure Température Précipitation Vent Pression Humidité
    00:00 +19°C° 0 mm 0 m/s 691 mmHg 91%
    01:00 +20°C° 0 mm 1 m/s 691 mmHg 94%
    02:00 +20°C° 0 mm 1 m/s 691 mmHg 95%
    03:00 +20°C° 0 mm 1 m/s 691 mmHg 96%
    04:00 +20°C° 0 mm 1 m/s 690 mmHg 97%
    05:00 +20°C° 0 mm 1 m/s 691 mmHg 94%
    06:00 +20°C° 0 mm 1 m/s 691 mmHg 91%
    07:00 +21°C° 0 mm 1 m/s 691 mmHg 89%
    08:00 +24°C° 0 mm 1 m/s 692 mmHg 76%
    09:00 +26°C° 0 mm 1 m/s 693 mmHg 63%
    10:00 +29°C° 0 mm 1 m/s 694 mmHg 50%
    11:00 +31°C° 0 mm 1 m/s 693 mmHg 45%
    12:00 +32°C° 0 mm 1 m/s 693 mmHg 40%
    13:00 +33°C° 0 mm 1 m/s 692 mmHg 35%
    14:00 +34°C° 0 mm 2 m/s 691 mmHg 37%
    15:00 +32°C° 0 mm 2 m/s 691 mmHg 39%
    16:00 +31°C° 0 mm 2 m/s 690 mmHg 41%
    17:00 +29°C° 0 mm 2 m/s 690 mmHg 51%
    18:00 +26°C° 0 mm 1 m/s 690 mmHg 61%
    19:00 +24°C° 0 mm 1 m/s 691 mmHg 71%
    20:00 +23°C° 0 mm 1 m/s 691 mmHg 75%
    21:00 +22°C° 0 mm 1 m/s 691 mmHg 80%
    22:00 +21°C° 0 mm 1 m/s 692 mmHg 84%
    23:00 +21°C° 0 mm 1 m/s 692 mmHg 87%

    10 Juin, Mercredi

    Heure Température Précipitation Vent Pression Humidité
    00:00 +20°C° 0 mm 1 m/s 692 mmHg 90%
    01:00 +20°C° 0 mm 1 m/s 691 mmHg 92%
    02:00 +20°C° 0 mm 1 m/s 691 mmHg 93%
    03:00 +19°C° 0 mm 1 m/s 691 mmHg 94%
    04:00 +19°C° 0 mm 1 m/s 691 mmHg 95%
    05:00 +20°C° 0 mm 1 m/s 691 mmHg 93%
    06:00 +20°C° 0 mm 1 m/s 692 mmHg 91%
    07:00 +20°C° 0 mm 1 m/s 692 mmHg 88%
    08:00 +23°C° 0 mm 1 m/s 692 mmHg 76%
    09:00 +26°C° 0 mm 1 m/s 693 mmHg 63%
    10:00 +29°C° 0 mm 1 m/s 694 mmHg 50%
    11:00 +30°C° 0 mm 1 m/s 693 mmHg 45%
    12:00 +31°C° 0 mm 1 m/s 693 mmHg 40%
    13:00 +33°C° 0 mm 1 m/s 692 mmHg 34%
    14:00 +32°C° 0 mm 2 m/s 692 mmHg 36%
    15:00 +32°C° 0 mm 2 m/s 691 mmHg 38%
    16:00 +31°C° 0 mm 2 m/s 691 mmHg 40%
    17:00 +28°C° 0 mm 2 m/s 691 mmHg 50%
    18:00 +26°C° 0 mm 1 m/s 691 mmHg 59%
    19:00 +23°C° 0 mm 1 m/s 691 mmHg 68%
    20:00 +23°C° 0 mm 1 m/s 691 mmHg 72%
    21:00 +22°C° 0 mm 1 m/s 692 mmHg 75%
    22:00 +21°C° 0 mm 1 m/s 692 mmHg 79%
    23:00 +18°C° 0 mm 0 m/s 692 mmHg 82%
    Voir plus